EW7321 Gulfport FL US current weather conditions

sailwx.info

Wind from 096 at 0 knots gusting 2

Air temperature 24.4° C
Dewpoint -35.1° C

Last reported at 2020-May-26 12:08 UTC.
Time now 2020-May-26 12:52 UTC

Location: N 27°45' W 082°42'.
View on Google Maps.

See reports from other nearby stations

  
Tides and Currents Weather Stations Pressure Air Temp Water Temp Dewpoint Dewpoint Depression Visibility Wind Speed Wind Dir Waves Ship Positions
date/time (UTC)wind fromknots sea level pressurealtimeterstation pressurevisibilityair tempwater tempwave heightnotes
2020-May-26 12:08 096 0 gusting 2 24.4
2020-May-26 12:03 127 0 gusting 4 24.4
2020-May-26 11:58 150 0 gusting 4 24.4
2020-May-26 11:53 058 0 gusting 2 24.4
2020-May-26 11:48 134 0 gusting 2 24.4
2020-May-26 11:43 217 0 gusting 2 24.4
2020-May-26 11:38 156 0 gusting 2 24.4
2020-May-26 11:33 113 24.4
2020-May-26 11:28 214 0 gusting 2 24.4
2020-May-26 11:23 086 0 gusting 2 24.4
2020-May-26 11:18 121 24.4
2020-May-26 11:13 152 24.4
2020-May-26 11:08 092 24.4
2020-May-26 11:03 089 0 gusting 2 24.4
2020-May-26 10:58 158 23.9
2020-May-26 10:53 124 23.9
2020-May-26 10:48 096 23.9
2020-May-26 10:43 160 0 gusting 3 23.9
2020-May-26 10:37 105 0 gusting 4 23.9
2020-May-26 10:32 086 0 gusting 4 23.9
2020-May-26 10:27 113 23.9
2020-May-26 10:22 092 23.9
2020-May-26 10:17 108 23.9
2020-May-26 10:12 147 0 gusting 3 23.9
2020-May-26 10:07 081 0 gusting 4 23.9
2020-May-26 10:02 085 0 gusting 4 23.9
2020-May-26 09:57 095 0 gusting 3 23.9
2020-May-26 09:52 148 0 gusting 6 23.9
2020-May-26 09:47 106 0 gusting 6 23.9
2020-May-26 09:42 092 1 gusting 4 23.9
2020-May-26 09:37 103 0 gusting 4 23.9
2020-May-26 09:32 226 0 gusting 4 23.9
2020-May-26 09:27 038 1 gusting 4 23.9
2020-May-26 09:22 051 1 gusting 6 23.9
2020-May-26 09:17 077 1 gusting 6 23.9
2020-May-26 09:12 092 1 gusting 6 23.9
2020-May-26 09:07 106 1 gusting 5 23.9
2020-May-26 09:02 090 1 gusting 5 23.9
2020-May-26 08:57 140 1 gusting 6 23.9
2020-May-26 08:52 060 1 gusting 6 23.9
2020-May-26 08:47 082 1 gusting 6 23.9
2020-May-26 08:42 064 2 gusting 6 23.9
2020-May-26 08:37 108 2 gusting 8 23.9
2020-May-26 08:32 078 2 gusting 8 23.9
2020-May-26 08:27 132 1 gusting 5 23.9
2020-May-26 08:22 082 1 gusting 5 23.9
2020-May-26 08:17 123 1 gusting 6 23.9
2020-May-26 08:12 093 1 gusting 6 23.9
2020-May-26 08:07 046 1 gusting 5 23.9
2020-May-26 08:02 095 0 gusting 5 23.9
2020-May-26 07:57 089 0 gusting 4 23.9
2020-May-26 07:52 124 0 gusting 5 23.9
2020-May-26 07:47 077 23.9
2020-May-26 07:42 082 23.9
2020-May-26 07:37 143 0 gusting 4 23.9
2020-May-26 07:32 074 0 gusting 5 23.9
2020-May-26 07:27 068 0 gusting 5 24.4
2020-May-26 07:22 131 0 gusting 4 24.4
2020-May-26 07:17 143 0 gusting 4 24.4
2020-May-26 07:12 162 0 gusting 4 24.4
2020-May-26 07:07 128 1 gusting 6 24.4
2020-May-26 07:02 138 1 gusting 6 24.4
2020-May-26 06:57 132 1 gusting 6 24.4
2020-May-26 06:52 197 2 gusting 9 24.4
2020-May-26 06:47 194 2 gusting 9 24.4
2020-May-26 06:42 063 2 gusting 6 24.4
2020-May-26 06:37 084 2 gusting 7 23.9
2020-May-26 06:32 193 1 gusting 7 24.4
2020-May-26 06:27 152 1 gusting 6 24.4
2020-May-26 06:22 110 1 gusting 6 24.4
2020-May-26 06:17 098 1 gusting 6 24.4
2020-May-26 06:12 056 1 gusting 6 24.4
2020-May-26 06:07 100 1 gusting 5 24.4
2020-May-26 06:02 138 0 gusting 5 23.9
2020-May-26 05:57 068 0 gusting 6 23.9
2020-May-26 05:52 095 1 gusting 6 23.9
2020-May-26 05:47 110 2 gusting 6 23.9
2020-May-26 05:42 155 1 gusting 6 23.9
2020-May-26 05:37 170 1 gusting 6 23.9
2020-May-26 05:32 056 1 gusting 6 23.9
2020-May-26 05:27 113 1 gusting 6 23.9
2020-May-26 05:22 092 1 gusting 7 23.9
2020-May-26 05:17 063 1 gusting 7 23.9
2020-May-26 05:12 133 1 gusting 6 23.9
2020-May-26 05:07 070 1 gusting 6 23.9
2020-May-26 05:02 034 1 gusting 5 23.9
2020-May-26 04:57 089 1 gusting 5 23.9
2020-May-26 04:52 084 1 gusting 4 23.9
2020-May-26 04:47 072 0 gusting 6 24.4
2020-May-26 04:42 037 1 gusting 6 24.4
2020-May-26 04:37 086 1 gusting 7 24.4
2020-May-26 04:32 066 1 gusting 7 24.4
2020-May-26 04:27 135 2 gusting 7 24.4
2020-May-26 04:22 094 2 gusting 8 24.4